Preview of NWS' New Version of Forecast
This preview is not operational and should not be used for support decisions.

Regional Weather Roundup (RWR)

Issued by Pendleton, OR (PDT)

                            
000
ASUS46 KPDT 160810
RWRPDT
PENDLETON REGIONAL WEATHER ROUNDUP
NATIONAL WEATHER SERVICE PENDLETON OREGON
100 AM PDT TUE OCT 16 2018

NOTE: FAIR INDICATES FEW OR NO CLOUDS BELOW 12,000 FEET WITH NO
SIGNIFICANT WEATHER AND/OR OBSTRUCTIONS TO VISIBILITY.

# INDICATES UNOFFICIAL STATION AND DATA

WAZ520-160910-
EAST SLOPES OF WASHINGTON CASCADES

CITY            SKY/WX      TMP DP  RH  WIND    PRES   REMARKS
#BULLFROG       N/A         31  30  96  CALM    N/A                          
#CLE ELUM HS    N/A         34  29  82  CALM    30.33S                       
#EASTON DOT     N/A         N/A N/A N/A CALM    N/A                          
#ELK HTS DOT    N/A         40  40  100 CALM    N/A                          
#GLENWOOD       N/A         30  27  88  CALM    30.44R                       
#NELSON 3SW     N/A         40  35  82  CALM    30.62S                       
#NILE           N/A         36  31  82  CALM    29.77R                       
#TEANAWAY 4NE   N/A         35  29  78  SW1     N/A                          
#TROUT LAKE 1NE N/A         34  31  89  CALM    30.42S                       
#TROUT LAKE 1E  N/A         29  27  92  CALM    30.41S                       
$$

WAZ521-160910-
SIMCOE HIGHLANDS

CITY            SKY/WX      TMP DP  RH  WIND    PRES   REMARKS
#BICKLETON HS   N/A         46   8  21  CALM    30.01S                       
#SATUS PASS DOT N/A         42  29  60  CALM    N/A                          
#CENTERVILLE 1SWN/A         35  27  72  CALM    30.36S                       
#GOLDENDALE 4W  N/A         36  19  50  CALM    30.40S                       
#GOODNOE HILLS  N/A         50  30  46  NW2     30.29R                       
#LYLE 6NE       N/A         46  29  51  N5      30.39S                       
#PITT 4SE       N/A         41  27  57  CALM    30.41S                       
$$

WAZ026-160910-
KITTITAS VALLEY

CITY            SKY/WX      TMP DP  RH  WIND    PRES   REMARKS
ELLENSBURG AP   CLEAR       36  28  72  N3      30.39S                       
#ELLENSBURG CWU N/A         38  33  82  CALM    30.36R                       
#ELLENSBURG 3NE N/A         35  28  75  CALM    28.46S                       
#ELLENSBURG 1E  N/A         34  31  89  CALM    30.50R                       
#KITTITAS 3S    N/A         30  27  88  CALM    30.42S                       
#MANASTASH RDG  N/A         48  48  100 CALM    N/A                          
#ROCKY CYN DOT  N/A         38  31  76  N3      N/A                          
#RYEGRASS DOT   N/A         49  25  39  CALM    N/A                          
#THORP 6N       N/A         37  31  79  CALM    30.43R                       
$$

WAZ027-160910-
YAKIMA VALLEY

CITY            SKY/WX      TMP DP  RH  WIND    PRES   REMARKS
SUNNYSIDE AP    CLEAR       34  32  92  CALM    30.40R                       
YAKIMA AIRPORT  CLEAR       36  30  79  W7      30.40R                       
#GRANDVIEW      N/A         38  32  79  CALM    30.43R                       
#MABTON         N/A         38  31  76  CALM    30.39R                       
#MOXEE 2E       N/A         42  N/A N/A CALM    30.34S                       
#NACHES 2SW     N/A         47  36  65  W1      30.39S                       
#OUTLOOK DOT    N/A         41  36  82  CALM    30.35S                       
#PARKER DOT     N/A         49  31  50  S1      30.37S                       
#TERRACE HTS    N/A         39  32  76  CALM    30.38R                       
#TOPPENISH      N/A         40  36  85  CALM    30.33R                       
#I82 S UMTANUM RN/A         45  25  45  NE6     N/A                          
#UNION GAP DOT  N/A         39  31  73  CALM    30.43R                       
#W YAKIMA       N/A         42  32  67  N2      30.41R                       
#ZILLAH DOT     N/A         40  33  76  NE2     N/A                          
$$

WAZ028-160910-
LOWER COLUMBIA BASIN...WASHINGTON

CITY            SKY/WX      TMP DP  RH  WIND    PRES   REMARKS
PASCO           CLEAR       35  32  89  N3      30.41R                       
PROSSER AWOS    N/A         36  34  92  CALM    30.43S                       
RICHLAND AWOS   CLEAR       38  35  89  CALM    30.41S                       
#BASIN CITY 5SW N/A         38  32  79  CALM    30.40R                       
#BENTON CITY    N/A         41  33  73  CALM    30.32R                       
#CONNELL 5N     N/A         34  25  69  NE2     30.42S                       
#CONNELL 5NW    N/A         36  12  36  N5      30.37R                       
#ELTOPIA 6NW    N/A         43  30  60  CALM    29.35S                       
#KAHLOTUS       N/A         39  19  44  S7      30.41S                       
#KENNEWICK 3S   N/A         45  31  58  CALM    30.40S                       
#PROSSER DOT    N/A         38  34  85  CALM    30.40S                       
#SAGEMOOR 2W    N/A         44  30  58  CALM    30.28R                       
#TOUCHET 2S     N/A         34  31  89  CALM    30.40R                       
$$

WAZ029-160910-
FOOTHILLS OF THE BLUES...WASHINGTON

CITY            SKY/WX      TMP DP  RH  WIND    PRES   REMARKS
WALLA WALLA AP  CLEAR       44  32  62  E6      30.39R                       
#CLYDE 6NW      N/A         37  24  59  N2      30.40S                       
#DELANEY DOT    N/A         31  26  81  SE1     30.41S                       
#LOWDEN 2SE     N/A         36  33  89  CALM    30.37R                       
#PLEASANT VIEW 1N/A         45  25  45  CALM    30.43R                       
#PRESCOTT       N/A         40  31  70  CALM    30.40R                       
#WHITMAN COLLEGEN/A         50  33  52  SW2     30.44R                       
#WAITSBURG 6SSE N/A         41  29  62  S3      30.23R                       
#WALLA WALLA 5E N/A         43  32  65  NE2     N/A                          
#WHITMAN MISSIONN/A         38  33  82  CALM    30.42S                       
$$

WAZ030-160910-
BLUE MOUNTAINS...WASHINGTON
 
CITY            SKY/WX      TMP DP  RH  WIND    PRES   REMARKS
#DIXIE 5SE      N/A         52  27  38  CALM    30.31R                       
$$

ORZ009-041-WAZ024-160910-
COLUMBIA RIVER GORGE

CITY            SKY/WX      TMP DP  RH  WIND    PRES   REMARKS
HOOD RIVER AP   CLEAR       37  34  89  CALM    30.39S                       
THE DALLES AP   CLEAR       42  30  62  CALM    30.39S                       
#CELILO DOT     N/A         49  29  46  S2      N/A                          
#LYLE           N/A         50  31  48  N5      30.40S                       
#MARYHILL       N/A         48  29  47  CALM    N/A                          
#MURDOCK        N/A         46  34  63  CALM    30.36R                       
#RUFUS DOT      N/A         47  33  58  S6      N/A                          
#SMITHVILLE     N/A         36  33  89  CALM    30.38S                       

$$

ORZ510-160910-
NORTH CENTRAL OREGON

CITY            SKY/WX      TMP DP  RH  WIND    PRES   REMARKS
#ANTELOPE       N/A         38  29  70  N1      30.28S                       
#COW CYN RST AREN/A         50  28  42  N2      N/A                          
#DUFUR          N/A         35  27  72  CALM    30.37S                       
#DUFUR 9E       N/A         51  26  37  CALM    30.42S                       
#GRASS VALLEY 1SN/A         49  29  46  CALM    30.38R                       
#KENT DOT       N/A         43  21  41  CALM    N/A                          
#SHANIKO 5WSW   N/A         50  27  41  NE16    N/A                          
#WAPANITIA AIRPON/A         41  26  55  CALM    30.41S                       
#WASCO DOT      N/A         38  30  73  CALM    N/A                          
#WASCO 5NE      N/A         33  26  75  CALM    30.40R                       
$$

ORZ511-160910-
CENTRAL OREGON

CITY            SKY/WX      TMP DP  RH  WIND    PRES   REMARKS
BEND AIRPORT    CLEAR       37  12  35  SW5     30.39S                       
MADRAS AIRPORT  CLEAR       32  23  69  SE7     30.41R                       
PRINEVILLE AP   CLEAR       30  16  55  CALM    30.39S                       
REDMOND AIRPORT CLEAR       36  14  40  S5      30.39R                       
#ASHWOOD SCHOOL N/A         41  27  57  CALM    30.32S                       
#BEND 1SW       N/A         30  10  42  CALM    N/A                          
#BEND-AWBREY    N/A         42  24  48  CALM    30.39F                       
#BEND-KIM LN    N/A         35  16  45  W3      30.39S                       
#CULVER         N/A         37  24  59  CALM    30.10S                       
#CULVER 8W      N/A         37  12  35  CALM    30.35S                       
#LAKE BILLY CHINN/A         41  N/A N/A CALM    30.43R                       
#POWELL BUTTE   N/A         44  14  29  CALM    30.29S                       
#PRINEVILLE     N/A         35  27  72  CALM    30.50R                       
#WARM SPRINGS   N/A         40  24  52  CALM    30.23R                       

$$


ORZ509-160910-
EAST SLOPES OF OREGON CASCADES

CITY            SKY/WX      TMP DP  RH  WIND    PRES   REMARKS
SISTERS AWOS    N/A         27  10  48  CALM    30.33S                       
#BLUE BOX PASS  N/A         45  N/A N/A CALM    N/A                          
#CAMP SHERMAN   N/A         25   8  48  CALM    30.48S                       
#LA PINE 4NW    N/A         25   8  48  CALM    30.52R                       
#LAVA BUTTE DOT N/A         30   8  39  CALM    N/A                          
#SISTERS ODOT   N/A         27  10  48  CALM    N/A                          
#SISTERS 3N     N/A         25  -4  27  CALM    30.38S                       
#SUNRIVER       N/A         29  15  55  CALM    30.46F                       
#TUMALO 3W      N/A         49  19  30  NW2     30.25S                       
#WANOGA BUTTE D N/A         47   6  18  NE1     N/A                          

$$

ORZ044-160910-
LOWER COLUMBIA BASIN...OREGON

CITY            SKY/WX      TMP DP  RH  WIND    PRES   REMARKS
HERMISTON       CLEAR       40  33  76  E6      30.38S                       
#BOARDMAN SCHOOLN/A         36  32  85  SE1     30.38R                       
#BOARDMAN 8SW   N/A         40  34  79  S2      30.40R                       
#ECHO 8SW       N/A         38  32  79  CALM    30.39R                       
#I-84 EX 198 DOTN/A         46  31  56  NE8     N/A                          
#IONE SCHOOL    N/A         37  21  52  CALM    30.42S                       
#UMATILLA       N/A         41  33  73  SE5     30.32R                       
$$

ORZ507-160910-
NORTHERN FOOTHILLS OF THE BLUES

CITY            SKY/WX      TMP DP  RH  WIND    PRES   REMARKS
PENDLETON AIRPT CLEAR       41  31  67  SE6     30.38R                       
#ADAMS 3WNW     N/A         35  30  82  N1      30.40R                       
#ATHENA         N/A         33  28  82  CALM    30.45S                       
#CAYUSE         N/A         47  33  58  E12     30.38R WCI 42                
#HELIX SCHOOL   N/A         36  30  79  CALM    30.42R                       
#HELIX 3N       N/A         45  30  55  CALM    30.37S                       
#HOLDMAN 6E     N/A         45  32  60  CALM    30.20R                       
#M-FREEWATER 5SEN/A         46  34  63  N1      30.36S                       
#PENDLETON DNTN N/A         38  24  57  CALM    30.37S                       
#PDT AQUATIC CTRN/A         37  26  64  CALM    30.30S                       
#PDT SUNRIDGE   N/A         34  31  89  CALM    30.40S                       
#PENDLETON 6SE  N/A         38  31  76  S1      30.36R                       
#PENDLETON 7NW  N/A         39  31  73  SE2     32.47S                       
#TUTUILLA       N/A         31  26  81  CALM    30.44S                       
#UMAPINE 2E     N/A         36  32  85  CALM    30.37R                       
#WESTON SCHOOL  N/A         44  27  51  CALM    30.25R                       

$$

ORZ508-160910-
SOUTHERN FOOTHILLS OF THE BLUES

CITY            SKY/WX      TMP DP  RH  WIND    PRES   REMARKS
#AJAX           N/A         50  22  33  CALM    30.50S                       
#CONDON 5W      N/A         51  28  41  CALM    30.34S                       
#HEPPNER EOC    N/A         43  31  62  SE1     30.32S                       
#HEPPNER 4NE    N/A         50  22  33  E6      30.38R                       
#LEXINGTON 2SE  N/A         38  30  73  SE5     30.35S                       
#OLEX 4N        N/A         40  32  73  SE3     30.36S                       
#RUGGS 5NE      N/A         41  27  57  CALM    30.52S                       
#RUGGS 2SW      N/A         46  30  53  S6      30.40S                       

$$

ORZ502-503-160910-
BLUE MOUNTAINS

CITY            SKY/WX      TMP DP  RH  WIND    PRES   REMARKS
MEACHAM         CLEAR       27  22  81  CALM    30.40S                       
#BATTLE MTN DOT N/A         40  21  46  CALM    N/A                          
#GRANITE        N/A         26  16  65  CALM    30.03S                       
#HEPPNER 15SE   N/A         38  31  76  CALM    25.88S                       
#LADD CYN SMT   N/A         34  27  75  CALM    N/A                          
#LADD CREEK ODOTN/A         35  25  66  S3      N/A                          
#N POWDER DOT   N/A         30  28  92  W2      N/A                          
#SUMMERVILLE 5NWN/A         36  30  79  CALM    27.03R                       
#TOLLGATE       N/A         35  26  69  CALM    30.39S                       
#TROY SCHOOL    N/A         35  30  82  CALM    30.32S                       
#UKIAH          N/A         27  24  88  CALM    30.42R                       
#WESTON 4E      N/A         46  29  51  CALM    30.37R                       
$$

ORZ505-160910-
JOHN DAY BASIN

CITY            SKY/WX      TMP DP  RH  WIND    PRES   REMARKS
JOHN DAY        CLEAR       43  26  51  E7      30.40R                       
#MITCHELL 8NW   N/A         50  24  36  CALM    30.39S                       
#MONUMENT HS    N/A         35  28  75  CALM    30.34R                       
$$

ORZ506-160910-
OCHOCO AND JOHN DAY HIGHLANDS

CITY            SKY/WX      TMP DP  RH  WIND    PRES   REMARKS
#HORSE RIDGE DO N/A         22   2  41  CALM    N/A                          
#IZEE 6NW       N/A         26  22  85  CALM    N/A                          
#PAULINA ODOT   N/A         32  17  53  CALM    N/A                          
#PRAIRIE CITY   N/A         32  24  72  CALM    30.53S                       
#SENECA 9NW     N/A         26  20  78  CALM    30.48S                       
$$

ORZ049-160910-
GRANDE RONDE VALLEY

CITY            SKY/WX      TMP DP  RH  WIND    PRES   REMARKS
LA GRANDE       CLEAR       34  28  78  W5      30.41S                       
#COVE SCHOOL    N/A         33  28  82  CALM    30.38R                       
#COVE 6NW       N/A         32  26  78  CALM    30.48R                       
#ELGIN 3N       N/A         33  24  69  CALM    30.36R                       
#ELGIN 1E       N/A         34  26  72  CALM    N/A                          
#IMBLER SCHOOL  N/A         39  29  67  CALM    30.34R                       
#ISLAND CITY 4N N/A         49  40  71  CALM    30.26R                       
#LADD CYN DOT   N/A         40  29  64  SE8     N/A                          
#UNION 1S       N/A         33  28  82  CALM    30.48R                       
$$

ORZ050-160910-
WALLOWA COUNTY

CITY            SKY/WX      TMP DP  RH  WIND    PRES   REMARKS
#ENTERPRISE HS  N/A         30  26  85  CALM    30.38R                       
#IMNAHA SCHOOL  N/A         37  31  79  SE2     30.42R                       
#JOSEPH         N/A         34  29  82  CALM    30.55S                       
#JOSEPH 3N      N/A         29  24  81  CALM    30.40R                       
#JOSEPH 3W      N/A         38  27  64  CALM    30.21R                       
#LOSTINE        N/A         31  26  81  CALM    30.29S                       
#LOSTINE 3SE    N/A         35  28  75  SW3     30.47R                       
#MT HOWARD 8000 N/A         36  13  38  N1      30.46R                       
#PROMISE 1S     N/A         36  25  64  CALM    30.51F                       
#WALLOWA LAKE   N/A         38  30  73  SE1     30.46R                       
#WALLOWA SCHOOL N/A         29  26  88  CALM    30.37R                       



$$